DW9686 Weather Reports


time (UTC)temp
C
wind
direction
speed
KPH
gust
KPH
rain 1hr
cm
rain 24hr
cm
rain mn
cm
humidity
%
barometer
mb
20260902213046 23 164 9.7 17.7 0.00 0.00 0.00 45 1006.0
20260902211541 23 175 8.0 14.5 0.00 0.00 0.00 48 1006.0
20260902210039 23 166 11.3 19.3 0.00 0.00 0.00 47 1006.2
20260902204538 23 203 8.0 16.1 0.00 0.00 0.00 48 1006.4
20260902203042 22 249 8.0 16.1 0.00 0.00 0.00 51 1006.5
20260902201539 22 221 4.8 17.7 0.00 0.00 0.00 51 1006.6
20260902200039 22 217 8.0 24.1 0.00 0.00 0.00 51 1006.8
20260902194543 22 205 12.9 24.1 0.00 0.00 0.00 53 1007.1
20260902193038 22 205 14.5 25.7 0.00 0.00 0.00 51 1007.2
20260902191550 21 205 14.5 25.7 0.00 0.00 0.00 56 1007.3
20260902190052 21 205 11.3 19.3 0.00 0.00 0.00 57 1007.6
20260902184539 20 211 11.3 22.5 0.00 0.00 0.00 59 1007.7
20260902183041 20 200 12.9 22.5 0.00 0.00 0.00 57 1007.9
20260902181537 20 216 12.9 24.1 0.00 0.00 0.00 60 1008.1
20260902180042 19 194 12.9 22.5 0.00 0.00 0.00 64 1008.1
20260902174537 18 200 12.9 20.9 0.00 0.00 0.00 65 1008.0
20260902173041 18 196 12.9 19.3 0.00 0.00 0.00 66 1008.1
20260902171600 18 187 8.0 19.3 0.00 0.00 0.00 67 1008.1
20260902170103 17 201 11.3 17.7 0.00 0.00 0.00 68 1008.0
20260902164541 17 193 9.7 17.7 0.00 0.00 0.00 68 1008.2
20260902163036 17 209 12.9 20.9 0.00 0.00 0.00 71 1008.2
20260902161544 17 221 9.7 19.3 0.00 0.00 0.00 74 1008.2
20260902160042 16 217 12.9 17.7 0.00 0.00 0.00 78 1008.3
20260902154537 15 205 16.1 24.1 0.00 0.00 0.00 78 1008.5
20260902153037 15 196 12.9 19.3 0.00 0.00 0.00 82 1008.4
20260902151536 14 203 8.0 14.5 0.00 0.00 0.00 83 1008.3
20260902150040 13 203 3.2 8.0 0.00 0.00 0.00 86 1008.4
20260902144538 13 203 6.4 9.7 0.00 0.00 0.00 84 1008.4
20260902143039 13 203 1.6 6.4 0.00 0.00 0.00 84 1008.3
20260902141546 13 203 6.4 12.9 0.00 0.00 0.00 84 1008.1
20260902140036 12 203 1.6 6.4 0.00 0.00 0.00 84 1008.2
20260902134544 13 203 4.8 11.3 0.00 0.00 0.00 83 1007.7
20260902133039 13 203 8.0 12.9 0.00 0.00 0.00 83 1007.6
20260902131535 13 203 6.4 12.9 0.00 0.00 0.00 83 1007.3
20260902130038 13 203 8.0 16.1 0.00 0.00 0.00 82 1007.2
20260902124539 13 202 11.3 16.1 0.00 0.00 0.00 82 1007.1
20260902123037 13 202 9.7 16.1 0.00 0.00 0.00 83 1007.2
20260902121540 13 198 11.3 16.1 0.00 0.00 0.00 80 1007.1
20260902120039 14 193 9.7 16.1 0.00 0.00 0.00 80 1007.3
20260902114540 14 192 11.3 20.9 0.00 0.00 0.00 80 1007.6
20260902113037 13 190 9.7 16.1 0.00 0.00 0.00 82 1007.7
20260902111538 13 190 4.8 9.7 0.00 0.00 0.00 80 1007.3
20260902110038 13 190 4.8 11.3 0.00 0.00 0.00 79 1007.1
20260902104542 13 190 8.0 12.9 0.00 0.00 0.00 78 1006.9
20260902103036 13 183 8.0 14.5 0.00 0.00 0.00 79 1006.8
20260902101533 13 183 3.2 6.4 0.00 0.00 0.00 79 1006.8
20260902100040 13 183 4.8 8.0 0.00 0.00 0.00 79 1007.0
20260902094537 13 183 4.8 8.0 0.00 0.00 0.00 78 1006.6
20260902093040 13 183 6.4 9.7 0.00 0.00 0.00 77 1006.7
20260902091538 14 183 4.8 6.4 0.00 0.00 0.00 77 1006.7
20260902090037 15 183 1.6 4.8 0.00 0.00 0.00 75 1006.9
20260902084541 16 183 1.6 6.4 0.00 0.00 0.00 71 1006.8
20260902083039 16 183 3.2 6.4 0.00 0.00 0.00 71 1006.5
20260902081538 16 183 3.2 6.4 0.00 0.00 0.00 73 1006.6
20260902080039 16 183 4.8 8.0 0.00 0.00 0.00 73 1006.4
20260902074547 16 183 4.8 9.7 0.00 0.00 0.00 73 1006.4
20260902073037 16 183 6.4 9.7 0.00 0.00 0.00 73 1006.2
20260902071538 17 183 3.2 6.4 0.00 0.00 0.00 69 1006.2
20260902070039 17 183 3.2 4.8 0.00 0.00 0.00 69 1006.1
20260902064536 18 183 3.2 6.4 0.00 0.00 0.00 67 1006.0
20260902063059 17 183 11.3 17.7 0.00 0.00 0.00 70 1005.8
20260902061536 17 147 4.8 14.5 0.00 0.00 0.00 70 1005.7
20260902060052 17 125 4.8 12.9 0.00 0.00 0.00 68 1005.4
20260902054539 17 121 4.8 12.9 0.00 0.00 0.00 68 1005.4
20260902053035 18 121 6.4 12.9 0.00 0.00 0.00 67 1005.2
20260902051544 17 120 4.8 12.9 0.00 0.00 0.00 68 1005.1
20260902050035 17 120 0.0 6.4 0.00 0.00 0.00 67 1004.9
20260902044540 18 120 3.2 9.7 0.00 0.00 0.00 64 1004.8
20260902043100 18 120 3.2 6.4 0.00 0.00 0.00 63 1004.8
20260902041554 19 120 3.2 4.8 0.00 0.00 0.00 62 1004.7
20260902040041 20 120 3.2 9.7 0.00 0.00 0.00 62 1004.6
20260902034546 21 120 3.2 6.4 0.00 0.00 0.00 61 1004.5
20260902033035 21 120 3.2 9.7 0.00 0.00 0.00 59 1004.5
20260902031541 21 0 0.0 4.8 0.00 0.00 0.00 58 1004.1
20260902030041 22 120 1.6 9.7 0.00 0.00 0.00 58 1004.1
20260902024536 22 120 4.8 9.7 0.00 0.00 0.00 57 1003.8
20260902023038 22 120 4.8 9.7 0.00 0.00 0.00 59 1003.8
20260902021538 23 120 4.8 9.7 0.00 0.00 0.00 59 1003.8
20260902020038 23 120 3.2 11.3 0.00 0.00 0.00 58 1003.8
20260902014538 25 120 6.4 11.3 0.00 0.00 0.00 53 1004.1
20260902013048 25 120 3.2 6.4 0.00 0.00 0.00 51 1004.1
20260902011537 25 120 4.8 11.3 0.00 0.00 0.00 53 1004.2
20260902010047 25 120 4.8 11.3 0.00 0.00 0.00 52 1004.3
20260902004537 26 120 6.4 11.3 0.00 0.00 0.00 50 1004.2
20260902003113 26 120 8.0 14.5 0.00 0.00 0.00 48 1004.3
20260902001537 27 120 11.3 19.3 0.00 0.00 0.00 47 1004.2
20260902000040 27 134 4.8 14.5 0.00 0.00 0.00 45 1004.3
20260901234539 26 136 9.7 16.1 0.00 0.00 0.00 44 1004.5
20260901233039 26 138 8.0 16.1 0.00 0.00 0.00 45 1004.4
20260901231547 26 152 8.0 16.1 0.00 0.00 0.00 46 1004.6
20260901230038 26 171 8.0 12.9 0.00 0.00 0.00 46 1004.8
20260901224537 26 172 4.8 12.9 0.00 0.00 0.00 44 1004.9
20260901223034 26 173 6.4 11.3 0.00 0.00 0.00 46 1005.2
20260901221542 25 176 4.8 11.3 0.00 0.00 0.00 46 1005.2
20260901220043 25 176 1.6 4.8 0.00 0.00 0.00 48 1005.2
20260901214540 25 0 1.6 8.0 0.00 0.00 0.00 48 1005.4